Location: The Jewett Observatory
(46.7288°N, 117.1525°W)
Time: 01:01:16
(UTC-07:00)

Meteor 1-28 Rocket - Visible Passes

Search period start: 28 May 2015 00:00
Search period end: 07 June 2015 00:00
Orbit: 509 x 531 km, 97.2° (Epoch: 27 May)

Date Brightness Start Highest point End Pass type
(mag) Time Alt. Az. Time Alt. Az. Time Alt. Az.
29 May 6.8 22:13:38 10° NW 22:14:21 10° WNW 22:14:55 10° WNW visible
30 May 6.3 21:58:57 10° NNW 22:01:02 14° WNW 22:03:00 10° W visible
31 May 6.2 21:44:56 10° NNW 21:47:41 19° WNW 21:50:21 10° WSW visible
01 Jun 5.7 21:31:08 10° NNW 21:34:19 25° WNW 21:37:26 10° SW visible
02 Jun 5.1 21:17:26 10° N 21:20:55 35° WNW 21:24:22 10° SW visible
05 Jun 6.8 22:13:36 10° NW 22:14:15 10° WNW 22:14:45 10° WNW visible
06 Jun 6.4 21:58:50 10° NNW 22:00:55 14° WNW 22:02:52 10° W visible
